Погода в Шордаково

Россия / Кабардино-Балкарская Республика     43°52′45″N   43°06′17″E
темп.,
°C
ветер,
м/с
пор.,
м/с
влажн.,
%
обл.,
%
осадки,
мм/ч
давл.,
гПа
погр.,
м
22 апреля, чт
чт2200:00+9вюв2689100 0.0 1021483
03:00+9юв248895 0.0 1021277
06:00+9вюв2593100 0.7 1021304
09:00+9в3691100 0.9 1022500
12:00+10в458099 0.1 1022861
15:00+10вюв3576100 0.1 1022868
18:00+9вюв3681100 0.0 1022604
21:00+8юв2488100 0.3 1022321
23 апреля, пт
пт2300:00+8зсз1297100 12.2 1022224
03:00+8зсз41093100 12.9 1023800
06:00+7зсз488866 0.1 1024602
09:00+11сз45642 0.2 10241025
12:00+14ссз344542 0.0 10221765
15:00+15с224270 0.0 10211759
18:00+13всв235870 0.0 1021223
21:00+10ююв226823 0.0 102131
24 апреля, сб
сб2400:00+8ююв2277100 0.0 101935
03:00+9юз1174100 0.0 101917
06:00+10юз1169100 0.0 101917
09:00+12св1058100 0.0 1019482
12:00+16св224780 0.0 10181490
15:00+17ссв2247100 0.0 10171840
18:00+13ссз1263100 0.1 1018156
21:00+13ссз1266100 0.1 1019110
25 апреля, вс
вс2500:00+12сз2272100 0.0 101998
03:00+10с1286100 0.1 1020174
06:00+9св1289100 0.1 1020229
09:00+10в2389100 0.3 1020479
12:00+10в3592100 0.4 1019704
15:00+11в4788100 0.8 1017728
18:00+10св2390100 0.1 1017246
21:00+8всв2397100 0.5 1019393
26 апреля, пн
пн2600:00+7юв2495100 0.1 1019331
03:00+7в2497100 0.4 1017278
06:00+7в2397100 0.1 1016309
09:00+7вюв3595100 0.5 1015491
12:00+8вюв3490100 0.3 1014582
15:00+9св2188100 0.4 1014507
18:00+8сз2596100 1.2 1014453
21:00+7ссз1295100 8.3 1016210